Location: Praha
(50.0830°N, 14.4670°E)
Time: 05:56:58
(UTC+02:00)

ISS - Pass Details

Date: 26 March 2020
Orbit: 417 x 423 km, 51.6° (Epoch: 29 March)

Event Time Altitude Azimuth Distance (km) Brightness Sun altitude
Rises 21:28:27 0° 286° (WNW) 2,362 1.0 -27.2°
Reaches altitude 10° 21:30:33 10° 285° (WNW) 1,498 -0.2 -27.5°
Enters shadow 21:31:34 18° 285° (WNW) 1,090 -1.1 -27.6°
